Theta_e
323 325 330 331 333 333 330 331 330 327 324 320 317 317 317 316 314 312 310 314 321 321 322 324 326 330 333 335 337 338 338 339 340 341 340 340 341 341 341 341 340 339 339 338 337 337 336 334 334 333 332 331 331 329 319 320 319 317 323 323 323 327 330 331 332 333 334 334 335 335 336 336 337 335 334 334 335 336 336 337 337 337 335 334 336
321 324 329 331 334 333 331 331 329 327 324 319 318 318 318 316 314 311 311 317 326 327 327 327 327 329 332 335 336 338 338 338 339 340 340 340 341 341 340 340 340 339 338 338 337 336 334 333 332 332 332 330 330 323 314 319 316 318 325 319 323 329 331 331 332 333 334 334 335 335 336 336 337 337 335 334 335 336 336 337 336 336 335 335 336
320 323 327 331 333 332 331 331 329 327 324 320 319 320 319 317 314 312 312 319 327 330 331 329 329 328 331 336 336 338 338 338 339 339 340 340 340 340 340 339 339 338 338 337 335 334 333 332 331 331 331 329 327 315 312 319 314 322 326 318 326 330 331 332 332 333 334 334 334 335 335 336 337 337 336 334 335 336 336 336 336 336 336 335 335
321 322 326 330 332 332 331 331 329 327 325 321 320 320 319 317 313 312 315 320 327 330 331 331 331 330 332 336 338 338 338 339 339 339 339 339 339 338 338 338 337 337 335 335 334 334 332 331 331 330 328 325 320 310 312 318 313 322 323 320 329 330 331 332 332 333 333 334 334 335 335 336 337 337 336 335 335 336 336 336 336 335 335 334 333
322 322 325 329 329 331 331 330 328 326 326 322 321 321 319 317 314 314 319 323 327 329 330 331 332 332 334 337 338 338 338 338 338 338 338 337 337 337 337 336 335 334 333 333 332 332 331 330 329 327 324 321 317 309 313 315 311 320 323 324 330 329 330 330 331 332 332 334 334 334 335 336 337 337 336 335 336 336 336 335 336 335 335 334 332
322 321 324 326 328 330 330 330 328 327 326 324 321 322 320 318 314 315 322 324 325 327 329 331 332 334 335 337 338 338 337 337 337 336 336 336 335 335 334 334 333 331 331 330 327 327 327 326 326 325 323 321 317 310 312 310 309 319 322 325 328 328 329 330 331 331 332 333 333 334 335 336 337 337 336 335 335 336 336 336 336 336 335 333 331
322 322 323 323 325 327 328 328 328 327 327 326 322 322 321 318 315 315 320 324 325 325 326 329 331 334 336 337 337 337 337 336 335 334 333 333 333 333 332 332 332 330 329 326 324 324 325 325 326 327 324 322 317 311 310 306 311 319 323 325 326 327 329 330 331 331 332 332 333 334 335 336 336 336 336 336 336 336 336 336 335 334 333 331 330
322 323 322 321 322 323 324 325 326 326 326 326 323 322 322 320 317 314 315 319 323 325 325 326 328 332 335 336 336 336 336 335 333 332 332 332 331 331 331 329 327 326 325 323 322 323 326 326 326 325 322 324 318 311 309 307 317 322 323 327 326 328 330 331 332 332 332 331 332 333 335 336 336 336 336 336 336 336 336 335 334 332 331 330 328
323 323 323 322 320 320 322 322 324 325 325 325 324 323 323 321 319 316 314 313 315 319 323 324 325 328 331 333 334 334 334 333 332 331 331 332 329 327 327 325 324 324 324 324 322 322 322 323 325 324 322 325 319 310 309 308 320 324 324 328 327 329 331 332 333 332 333 332 332 332 334 336 336 336 336 336 336 336 335 334 332 331 330 328 327
323 323 324 323 321 321 321 322 323 325 326 325 324 323 323 323 321 319 316 314 312 312 315 317 318 319 319 320 322 323 323 324 323 323 323 323 321 320 320 321 322 322 326 325 323 319 316 320 328 329 323 324 318 309 309 308 317 326 327 330 329 330 331 332 332 332 333 333 333 333 334 336 336 336 336 336 336 335 334 332 331 330 329 327 326
323 323 324 324 323 322 322 322 324 325 326 327 325 323 323 323 322 321 319 318 316 314 313 313 313 313 313 312 313 313 313 314 314 314 314 314 314 314 314 315 316 317 322 323 322 317 313 317 322 326 323 322 320 310 308 308 315 326 327 329 329 330 331 331 332 332 334 335 335 334 334 335 336 336 336 336 336 335 333 332 331 329 328 326 325
323 323 324 325 324 323 324 323 324 326 327 328 327 325 324 323 323 323 322 321 320 319 318 317 316 316 316 315 315 315 315 315 316 316 316 315 315 314 314 314 313 314 318 321 322 317 315 315 312 318 318 318 322 312 307 309 315 325 326 327 329 330 331 331 331 332 334 335 335 335 335 336 336 336 336 335 334 333 332 331 330 328 327 325 323
323 323 324 325 325 325 325 324 325 326 327 328 328 327 325 325 325 324 324 323 322 322 322 321 321 321 320 320 320 320 320 321 320 320 320 319 318 317 315 314 314 314 316 319 321 318 316 314 311 315 314 317 320 311 307 309 316 324 324 325 328 329 330 330 331 332 334 336 336 335 335 336 336 336 336 335 334 333 332 330 329 328 325 322 321
325 323 324 325 326 326 326 326 326 327 327 328 328 328 327 326 326 326 326 325 324 324 324 324 324 324 324 324 324 324 324 324 324 323 322 321 321 319 317 315 315 314 314 316 318 317 314 313 311 313 315 317 314 309 307 310 318 322 322 323 326 328 329 330 331 332 333 335 336 336 336 336 336 336 335 334 334 333 331 329 327 326 323 321 319
330 324 323 326 327 328 328 328 328 328 328 328 328 328 328 327 327 327 327 327 327 326 327 327 327 326 326 326 326 326 326 326 326 325 325 324 322 321 319 317 315 314 314 314 313 313 312 311 311 313 315 314 310 308 307 311 319 321 320 322 324 327 328 330 331 332 333 334 336 336 336 336 336 335 335 334 333 332 330 327 324 323 321 320 319
334 328 324 325 327 329 329 329 329 329 329 330 329 329 329 328 328 328 328 329 329 329 329 329 329 329 329 328 328 328 327 328 328 327 327 326 324 322 320 318 316 315 314 313 312 312 311 310 312 313 314 313 311 308 307 314 320 320 320 320 322 325 328 329 331 332 333 334 335 336 336 335 336 335 334 333 332 331 329 325 323 321 319 319 318
335 333 328 325 326 328 329 330 330 331 331 331 330 330 329 329 329 330 330 330 330 330 331 331 331 331 331 331 330 330 329 329 329 329 329 328 327 324 321 319 317 315 314 313 312 312 311 312 313 313 311 312 312 307 310 317 319 320 320 319 319 322 327 329 330 332 333 334 334 335 336 335 336 335 334 333 332 330 329 326 322 320 319 318 316
335 335 332 328 326 327 329 330 331 332 332 332 331 330 330 330 330 331 331 331 331 331 331 332 332 332 332 332 332 332 331 331 331 330 330 329 329 327 324 321 319 317 314 313 313 313 313 314 314 311 309 309 309 307 312 319 319 320 321 319 317 320 326 329 330 332 333 334 334 335 335 335 335 335 334 334 333 331 329 326 321 320 319 317 315
333 335 334 332 328 327 329 330 331 332 332 333 333 332 332 332 332 332 333 333 333 332 332 332 332 333 333 333 333 333 333 332 332 331 331 330 329 329 327 324 320 318 316 314 314 314 315 315 311 308 309 310 308 307 313 318 319 321 322 319 316 321 326 329 330 331 333 334 334 334 335 335 335 335 335 333 333 331 329 326 322 321 319 317 315
330 332 334 334 332 330 328 330 331 332 333 334 333 334 334 335 335 334 334 334 334 334 333 333 333 333 333 334 334 334 334 333 333 333 332 331 330 329 329 327 323 320 318 316 315 315 317 315 310 308 310 311 310 310 314 317 320 322 322 320 317 322 326 329 331 331 332 333 333 334 334 334 334 335 336 334 332 331 328 326 323 321 319 318 317
325 328 330 333 334 333 331 330 330 331 333 334 335 334 335 335 336 336 335 335 335 334 334 334 334 334 334 334 334 334 334 334 334 334 333 333 332 330 329 329 326 322 319 318 316 315 318 317 312 313 313 312 313 314 315 316 320 322 323 321 318 322 326 329 330 331 331 332 333 333 334 334 334 335 336 335 333 331 328 325 323 320 318 318 320
318 321 324 327 331 333 333 333 331 331 332 334 335 335 336 336 336 337 337 336 336 336 335 335 335 334 334 334 334 334 333 334 334 335 334 334 333 332 330 330 329 326 322 319 318 315 318 319 315 316 317 315 315 315 315 316 319 322 323 322 319 321 326 329 330 330 331 331 332 333 333 333 334 335 335 334 333 332 328 326 323 321 319 318 320
315 315 317 319 323 327 330 331 332 332 332 333 334 336 337 336 336 336 336 337 336 336 336 335 335 335 335 334 334 334 334 334 335 335 334 333 332 331 330 330 330 329 326 321 319 316 317 320 318 317 319 319 318 317 316 316 318 320 322 321 320 320 324 328 329 330 330 331 332 332 332 332 333 334 334 334 333 332 329 326 324 322 321 319 320
314 313 313 314 316 318 322 326 330 332 332 331 332 334 336 337 337 336 337 337 337 337 336 336 336 335 335 335 335 334 334 334 335 335 334 333 332 331 330 330 330 329 329 325 321 318 317 319 320 318 318 319 320 320 318 317 317 318 319 319 319 320 323 327 328 329 329 330 331 331 331 331 333 334 334 334 332 332 330 325 324 323 321 321 321
314 314 314 314 314 313 315 320 324 327 330 330 330 331 333 335 337 336 337 337 338 338 337 336 336 336 335 335 335 335 335 335 335 335 334 333 332 331 330 330 331 330 330 328 325 321 318 317 320 320 319 318 319 321 320 319 319 318 317 316 316 316 318 322 325 327 327 328 329 330 331 331 332 334 334 333 331 332 331 326 323 323 321 321 322
315 314 314 314 314 314 313 314 317 320 324 326 328 329 331 333 335 337 337 337 337 337 337 337 336 336 335 335 335 335 335 335 334 334 334 333 332 332 331 331 332 331 330 330 329 326 322 318 318 320 320 319 319 320 320 321 320 320 319 318 316 314 313 314 317 320 322 324 325 328 330 331 332 333 334 332 331 330 329 326 322 322 322 322 322
314 313 313 315 315 316 315 314 315 316 317 320 324 328 330 331 333 335 337 337 336 336 336 335 335 335 335 335 335 334 334 334 334 333 333 333 333 333 333 333 333 333 332 330 330 329 326 322 319 318 319 320 320 320 320 320 321 321 321 321 320 319 316 313 312 312 315 319 321 325 327 329 332 334 334 332 330 330 328 326 322 320 321 322 322
313 313 313 315 316 317 317 316 315 315 315 316 318 324 328 331 332 333 335 336 336 336 335 334 335 334 334 334 334 334 334 334 334 333 332 332 332 332 332 334 334 334 334 333 331 330 329 327 324 320 319 319 320 321 320 320 320 321 321 320 320 320 319 317 314 311 310 313 317 322 325 327 331 334 334 331 330 329 328 325 323 322 321 322 323
312 312 314 314 316 317 317 316 315 315 314 314 315 317 321 325 330 332 332 333 335 336 335 334 334 334 334 333 333 334 334 334 334 333 332 332 332 333 332 333 335 335 335 335 334 332 330 329 328 326 323 320 320 320 321 322 321 321 321 321 320 319 319 318 317 315 312 311 312 317 323 326 330 333 333 332 331 330 328 327 325 324 322 321 322
311 311 313 313 315 317 317 316 316 315 314 314 314 314 315 317 322 328 331 332 333 335 336 335 334 334 334 333 333 334 334 335 335 334 333 334 334 333 332 331 333 334 334 334 335 335 333 331 331 330 329 326 324 321 320 321 322 322 322 321 321 321 320 318 317 317 315 314 312 313 319 324 328 332 332 331 331 330 329 329 328 326 324 322 321
311 312 311 311 314 316 316 316 316 317 316 314 313 313 313 313 314 321 329 332 333 333 334 335 335 334 333 332 332 332 333 335 335 335 334 334 334 333 332 330 330 332 332 333 335 336 335 333 332 332 332 331 330 327 322 320 321 321 322 322 323 323 322 321 319 317 316 315 314 312 315 320 324 328 332 331 331 330 330 329 329 328 325 322 321
310 310 310 310 312 314 314 315 316 316 316 315 313 312 312 313 313 317 326 331 333 334 334 334 334 334 334 333 331 330 333 335 335 335 334 333 333 332 332 331 329 330 330 330 333 336 336 335 333 333 333 333 332 331 328 324 322 321 321 321 323 324 324 324 322 320 318 316 316 315 314 316 320 324 328 331 331 330 330 329 329 328 325 323 322
310 309 309 310 310 311 313 314 314 315 316 316 314 312 311 312 313 316 322 328 332 335 336 335 333 333 334 334 333 332 334 335 334 334 334 334 334 334 333 332 330 329 329 330 332 334 336 336 334 334 333 333 333 332 331 329 328 326 324 322 321 322 323 325 325 323 320 318 318 317 316 315 317 320 324 328 331 330 330 329 329 328 327 325 323
309 309 309 310 309 310 312 313 314 314 314 315 315 313 311 312 312 313 316 322 329 333 335 335 334 332 332 333 334 333 333 333 332 332 332 332 332 332 332 333 331 328 328 331 332 333 335 335 334 334 333 332 332 332 331 330 330 330 329 327 325 322 321 321 323 324 324 321 319 318 318 317 317 318 320 324 328 329 330 330 329 328 328 327 323
309 309 309 308 308 309 310 312 313 313 313 313 314 313 311 311 311 312 312 314 323 332 333 333 334 333 331 332 333 333 332 331 331 331 330 329 328 328 327 328 329 327 327 329 329 330 331 332 333 334 333 332 332 331 330 330 330 330 330 330 329 328 326 322 320 322 323 323 322 319 318 318 318 318 318 321 325 328 329 330 330 328 328 328 325
308 308 308 308 307 308 308 309 311 313 312 312 312 313 312 310 310 311 311 310 318 330 333 331 332 332 331 331 331 332 331 330 330 329 327 326 326 325 324 323 323 324 325 327 327 327 328 330 331 332 332 331 331 331 330 329 330 331 330 329 330 330 331 329 325 321 320 322 323 323 321 319 319 318 318 318 321 324 326 328 329 328 328 328 326
308 308 308 307 307 307 307 307 309 310 311 311 311 312 312 311 310 310 311 309 314 326 331 331 331 331 332 331 329 329 329 329 328 327 325 325 324 323 322 321 321 321 322 325 326 326 328 329 330 331 331 330 330 331 330 328 329 329 329 329 328 329 331 331 329 325 321 320 321 323 323 322 321 319 318 318 318 320 323 327 329 329 328 328 327
308 308 308 308 308 307 308 307 307 307 308 310 311 311 311 311 310 309 311 309 310 317 324 329 331 331 331 330 329 329 328 327 326 325 324 324 323 322 321 321 323 323 322 324 325 325 327 328 329 330 330 329 329 330 329 328 329 329 329 328 327 328 329 330 329 328 326 325 323 323 323 324 325 323 320 319 317 317 319 323 327 329 328 328 328
308 308 308 307 308 307 308 307 307 307 307 308 310 312 312 311 310 310 312 312 311 312 315 322 328 329 330 330 329 328 327 326 324 323 322 321 321 320 319 320 323 323 322 322 323 323 325 326 327 328 328 328 328 329 329 329 330 328 327 326 326 326 327 328 328 327 327 327 327 326 325 324 325 326 324 322 319 317 316 318 321 325 327 328 327
307 307 307 306 306 306 307 306 306 306 306 307 309 312 313 312 311 310 313 313 314 315 313 315 322 325 326 327 327 326 325 323 321 320 318 317 316 315 316 318 319 319 318 318 318 319 320 321 322 323 323 322 323 326 328 327 326 324 323 324 324 325 325 325 325 324 324 325 326 326 326 325 324 325 326 325 322 319 317 316 317 320 324 326 326
306 307 307 307 307 306 306 306 306 306 306 306 307 309 311 312 310 310 311 312 313 317 316 312 315 319 321 321 321 321 320 318 317 316 314 312 311 311 313 314 314 314 313 313 313 313 314 314 316 317 315 314 318 322 322 323 323 322 323 324 325 325 326 326 326 325 323 322 323 324 325 325 325 325 325 326 325 322 319 317 317 319 322 324 325
306 306 307 309 308 306 306 307 307 306 306 306 306 307 308 310 310 309 309 309 311 315 315 311 311 314 316 318 318 317 316 315 314 313 311 308 307 308 309 309 310 310 310 310 309 310 310 310 311 311 310 312 317 319 318 321 324 323 324 327 328 328 328 327 326 324 323 323 323 324 324 324 324 324 324 324 325 325 322 319 317 319 321 321 323
306 306 307 308 309 307 306 307 307 306 306 306 306 306 307 308 309 309 308 308 308 311 312 310 308 309 312 314 315 315 312 310 310 309 308 306 305 305 305 306 306 307 307 307 307 307 307 307 308 308 309 313 317 317 318 321 323 322 325 328 327 326 325 323 323 323 324 325 326 326 326 326 325 325 324 325 326 326 325 322 319 319 320 320 321
306 307 307 308 309 308 308 308 307 307 306 307 307 307 307 307 308 310 308 308 308 310 311 311 310 309 309 311 312 311 308 306 306 306 306 304 304 304 304 304 304 304 305 305 306 305 304 305 305 306 310 315 318 318 318 319 320 323 325 327 326 325 324 324 324 324 325 326 326 325 325 324 324 325 325 325 326 326 326 325 322 320 320 320 321
306 307 307 308 308 308 308 308 308 307 307 307 307 307 307 307 308 309 309 309 310 311 312 312 311 309 308 308 309 309 307 305 304 304 304 304 304 304 304 304 304 304 303 304 305 304 308 309 305 306 311 317 321 322 319 315 317 324 327 327 327 325 325 325 325 325 325 323 320 320 321 323 324 325 326 326 326 327 327 326 324 322 321 321 321
308 307 307 308 308 308 308 308 308 308 308 308 307 307 307 307 308 309 309 309 310 311 311 311 310 308 307 307 307 308 307 305 303 304 304 304 304 304 304 304 303 304 303 304 304 304 309 309 307 314 320 321 324 327 325 318 315 322 327 328 328 327 326 325 324 323 322 318 314 314 317 321 324 326 326 326 326 326 327 327 326 323 322 322 321
308 308 308 308 308 308 308 308 308 308 308 308 308 307 307 307 308 308 309 309 309 309 308 309 308 307 307 307 306 307 307 305 304 304 304 304 304 304 304 304 304 304 303 304 304 304 306 305 310 323 328 324 323 324 323 316 308 312 320 323 324 324 323 322 322 321 320 316 309 309 315 319 323 324 326 326 326 326 326 327 326 324 323 323 323
307 307 307 308 307 307 307 307 308 308 307 308 307 308 307 307 308 307 308 308 308 308 307 307 308 308 307 307 307 307 306 305 304 304 304 304 304 304 304 304 304 304 303 304 304 304 304 303 309 319 319 314 313 312 311 307 304 304 307 310 311 310 310 312 316 318 318 317 312 310 313 316 318 321 324 325 325 325 325 325 325 323 324 325 324
305 305 305 306 306 306 306 306 306 307 307 307 307 307 308 308 308 307 307 307 308 308 308 307 308 308 308 307 306 306 306 305 304 304 304 304 304 304 304 304 304 304 304 304 304 304 305 304 304 306 307 305 304 304 303 302 303 303 302 303 303 302 303 305 309 311 313 316 316 313 313 314 316 319 322 324 324 324 324 322 321 321 322 324 326
305 305 304 305 305 305 305 305 305 306 306 306 306 306 307 308 308 308 308 307 307 307 308 308 308 308 308 306 306 306 305 304 304 304 304 304 304 304 304 304 304 304 304 304 304 305 304 304 303 303 303 303 302 302 302 302 302 302 302 302 302 302 303 303 305 306 307 312 316 317 317 318 318 317 317 318 318 318 319 317 317 318 319 322 324
305 305 305 305 305 305 305 305 305 306 306 306 306 306 306 307 308 308 308 308 307 307 307 307 307 307 307 306 305 305 305 305 304 304 304 304 304 304 304 304 304 304 304 304 304 305 304 303 303 303 303 302 302 302 302 302 302 302 302 302 302 302 303 303 304 304 306 311 316 317 316 316 314 311 309 310 309 309 309 309 311 314 317 320 322
Wind_Speed
28 27 27 26 24 23 22 20 19 17 17 17 16 14 12 11 10 11 13 16 16 16 18 18 15 13 11 9 9 10 10 10 11 11 11 11 11 11 12 10 8 7 6 5 3 2 4 5 6 6 5 4 4 9 10 6 5 6 11 12 16 19 19 18 19 18 17 16 16 15 15 15 15 16 17 18 21 23 23 21 21 21 22 21 20
29 28 28 27 25 24 23 21 19 18 17 18 17 15 13 11 11 10 13 17 17 17 18 18 17 14 11 10 9 10 11 11 12 12 13 12 12 11 10 8 7 6 5 4 2 2 4 4 4 4 4 3 6 10 7 6 5 7 11 14 18 20 19 18 17 16 15 15 15 15 15 14 14 15 16 18 21 23 23 21 22 23 23 21 20
28 28 28 27 26 25 24 21 20 19 18 18 17 15 13 13 12 12 14 17 18 18 19 18 17 15 13 11 11 11 11 12 12 12 12 12 12 10 8 7 6 5 4 2 2 2 3 2 3 2 3 6 8 9 5 6 5 8 11 17 20 19 18 16 14 14 13 14 14 14 15 14 14 14 15 19 20 23 23 22 23 23 23 21 19
27 28 29 26 26 26 25 22 21 20 18 18 17 15 14 14 14 14 17 18 19 19 19 19 18 16 14 13 13 12 12 12 12 12 12 11 11 10 8 6 5 4 2 1 1 1 1 1 2 3 6 8 7 7 5 5 6 9 12 19 19 17 15 13 14 14 13 14 14 14 14 15 15 15 16 20 21 22 22 21 22 21 20 18 16
26 28 29 26 27 27 26 23 21 20 19 19 17 15 14 14 15 17 19 20 20 20 20 19 19 17 16 15 15 13 13 13 12 12 11 10 10 9 7 5 4 2 2 2 2 2 3 3 4 7 8 8 7 7 4 5 7 10 16 19 16 14 13 14 15 13 13 14 14 14 14 15 16 17 18 21 21 21 20 20 20 19 17 15 13
26 27 29 27 26 27 27 24 22 21 20 19 18 16 14 14 16 18 20 21 21 21 20 20 19 18 17 16 15 14 13 12 11 11 10 9 8 7 6 5 4 3 4 3 4 5 5 5 5 7 7 6 8 5 4 7 10 15 19 17 14 13 13 14 13 13 13 13 14 14 14 15 16 18 19 21 21 20 19 18 17 16 14 12 10
26 27 28 27 26 27 27 26 24 22 21 20 19 17 14 14 15 18 20 21 21 21 21 20 20 18 17 16 15 14 13 12 11 10 9 8 8 7 7 6 5 5 6 6 7 5 4 4 4 4 6 8 8 3 6 9 13 18 19 14 14 13 12 13 12 12 12 12 13 13 13 14 17 18 19 20 20 19 17 16 14 12 10 9 7
26 26 27 27 25 26 27 27 25 23 22 21 20 18 16 14 14 17 19 20 20 20 20 21 20 19 18 16 15 14 13 12 11 10 9 8 8 8 7 7 7 7 9 10 9 6 3 4 5 7 8 9 7 2 7 10 13 18 19 14 14 14 13 13 12 12 11 11 12 12 13 14 16 18 19 19 18 17 16 14 11 9 8 6 4
27 27 27 27 26 26 27 27 26 24 23 22 21 19 17 15 14 15 16 18 19 19 19 19 19 18 16 15 15 14 13 12 11 10 10 9 9 9 8 8 8 9 9 10 9 7 7 6 6 8 6 5 5 3 8 11 14 17 18 14 14 14 14 13 12 11 11 11 11 12 12 13 16 17 17 17 17 15 13 11 8 7 5 2 3
28 28 27 28 27 27 28 27 27 25 23 22 21 20 19 17 15 14 15 15 16 17 18 17 17 15 14 13 12 12 11 10 9 9 9 9 9 9 9 9 10 9 8 6 6 7 6 4 3 5 4 3 2 4 9 12 17 17 15 12 13 15 15 13 11 11 10 10 10 12 12 13 15 15 15 15 14 12 10 7 5 4 2 2 4
28 28 28 28 28 28 28 28 27 26 24 23 22 21 20 19 17 15 15 14 15 15 15 15 15 14 12 11 11 10 10 9 8 7 7 7 6 7 7 8 9 10 8 5 6 7 2 3 4 4 4 3 2 4 9 14 18 16 13 12 14 16 15 13 11 10 9 10 10 12 13 14 15 15 14 13 11 9 8 5 4 1 1 3 5
29 29 29 29 29 29 28 28 28 27 26 24 23 22 21 20 18 17 16 15 15 14 14 14 14 13 13 12 11 10 10 9 8 7 6 5 4 3 4 5 7 9 9 8 8 9 5 4 4 5 5 4 5 5 10 16 17 15 13 12 14 16 14 13 11 10 10 10 10 12 14 15 15 14 13 11 8 7 7 4 2 1 3 5 7
29 29 29 30 31 30 29 29 29 28 27 26 25 23 22 21 20 18 17 16 16 15 15 14 14 14 13 12 12 11 10 9 8 7 5 4 3 1 2 3 5 7 9 10 10 10 9 8 5 3 3 4 6 6 13 17 17 15 13 13 15 16 14 12 11 10 11 11 11 12 15 15 15 14 11 9 7 6 6 4 2 3 5 6 7
28 30 30 30 31 31 30 30 29 29 28 27 26 25 24 22 21 20 19 18 17 16 15 14 14 13 13 12 11 11 10 9 7 6 5 4 2 1 2 3 4 6 8 10 10 10 9 7 4 3 3 3 6 8 15 19 16 15 14 14 15 16 14 12 10 10 11 12 12 13 15 14 14 12 9 7 6 6 5 3 3 5 7 6 6
25 29 31 31 31 31 31 30 30 29 29 28 27 26 25 24 23 22 21 19 18 17 16 15 14 14 13 12 11 10 10 8 7 6 5 4 2 1 1 2 3 4 7 8 8 7 7 4 3 4 4 4 6 9 16 18 15 15 15 15 15 15 14 12 10 9 10 12 13 14 16 14 12 11 10 8 6 6 5 4 5 7 8 6 4
21 26 30 31 31 31 31 31 30 30 29 29 28 28 27 26 25 23 22 21 20 19 18 17 16 15 14 13 12 11 10 9 8 7 5 4 3 2 1 2 2 3 5 5 4 5 4 2 2 3 4 5 6 11 17 17 16 15 15 16 16 15 13 13 11 9 10 11 13 14 16 15 11 10 10 8 7 7 7 7 8 8 7 4 2
19 23 28 30 31 31 31 32 31 30 30 29 29 29 28 28 27 26 24 23 22 20 19 18 17 16 15 14 13 13 12 11 9 8 7 5 4 3 2 2 2 2 4 3 3 3 2 1 1 2 5 7 7 13 18 15 16 15 15 16 16 15 13 13 12 10 10 11 13 14 14 12 11 9 9 9 8 8 8 9 8 7 4 1 1
19 21 24 28 31 32 32 32 32 31 31 30 30 29 29 28 28 27 26 25 23 22 21 19 18 17 16 15 14 14 13 13 11 10 9 7 6 4 3 2 2 2 3 3 2 2 1 1 1 3 6 8 7 14 18 15 16 16 15 17 16 15 13 14 13 12 11 10 11 12 12 10 10 9 10 10 9 8 9 9 7 3 1 1 1
19 21 23 25 29 32 33 33 33 33 32 32 30 29 29 29 28 28 27 26 25 23 22 21 20 19 18 17 16 16 15 14 13 12 11 10 8 7 5 3 2 2 3 3 2 2 2 2 2 5 7 7 7 13 18 16 16 16 16 17 16 14 13 14 13 12 12 12 11 11 11 9 9 11 11 11 10 8 8 7 4 1 2 3 3
19 21 22 24 26 29 33 34 34 34 34 33 32 31 30 30 29 28 28 26 26 25 24 22 21 20 20 19 18 17 17 16 15 14 13 12 10 9 7 5 3 3 3 3 3 3 3 3 5 6 7 7 7 11 16 17 17 17 16 16 15 14 13 13 13 12 12 12 12 12 11 9 9 11 11 13 13 10 6 3 3 4 4 4 4
20 21 22 23 24 27 30 32 34 35 35 35 34 33 32 31 30 29 29 28 27 26 25 24 23 22 21 20 19 19 18 17 16 15 14 13 12 10 9 6 5 4 3 4 4 3 4 5 6 7 7 8 8 10 15 18 18 17 17 16 15 14 13 13 13 12 12 12 12 12 12 10 10 11 13 15 16 11 5 5 6 6 5 4 6
21 21 22 23 24 25 27 29 32 35 36 36 36 35 34 33 32 31 30 30 29 27 26 25 24 24 23 21 21 20 20 19 18 17 15 14 13 12 10 9 7 5 5 5 4 4 5 6 7 7 7 9 9 11 14 17 19 18 17 17 16 15 14 13 13 13 12 12 12 12 12 11 10 12 14 14 15 11 7 7 7 5 5 5 7
21 21 22 22 23 24 25 27 28 31 35 37 38 37 36 35 34 33 32 32 31 30 28 27 26 25 24 23 22 21 21 20 19 18 16 16 15 14 13 11 10 8 7 6 6 5 6 7 7 8 8 9 11 12 13 16 18 19 19 18 17 16 15 14 14 14 13 13 13 12 12 11 10 12 14 13 13 13 9 8 8 6 5 7 8
21 21 22 23 23 23 24 26 26 28 30 34 37 39 38 37 36 35 34 33 32 32 31 30 28 27 26 25 24 23 22 21 20 19 18 18 17 16 16 14 13 11 9 9 8 7 7 8 8 9 9 10 11 13 13 15 17 18 19 19 18 17 16 15 15 14 13 13 13 14 14 12 11 12 15 16 14 14 11 9 9 6 6 8 9
20 21 23 24 24 24 25 25 25 26 27 30 34 37 39 39 39 38 36 34 33 33 33 32 31 29 28 27 26 25 23 22 22 21 21 21 19 18 17 16 15 14 13 11 10 9 9 9 10 10 10 10 11 13 14 15 16 17 18 19 19 19 19 18 17 16 15 14 14 14 15 13 11 12 16 19 16 15 13 10 9 7 6 9 9
22 23 24 24 25 26 25 25 25 25 26 27 29 33 37 40 40 40 39 37 35 34 34 34 33 32 31 30 29 27 26 25 24 23 22 21 20 18 18 17 16 16 15 14 12 11 11 11 11 10 10 10 11 13 14 15 15 16 17 18 19 19 20 20 20 18 17 16 15 15 15 13 11 13 17 19 14 12 13 11 10 8 7 9 9
24 24 24 24 25 26 26 25 24 25 25 26 28 31 34 37 40 40 40 40 39 37 36 36 35 34 34 32 31 30 28 27 26 25 23 21 19 18 18 17 17 17 16 16 15 14 13 12 12 11 11 11 12 13 14 15 15 16 16 17 18 19 20 21 21 21 19 18 16 16 17 14 11 15 20 16 11 13 13 11 10 9 9 10 10
26 26 26 25 26 27 26 26 25 25 25 26 28 31 33 35 37 39 40 41 41 41 39 37 36 35 35 34 33 32 30 29 28 26 24 22 21 19 19 18 17 17 17 17 16 16 15 14 13 13 12 12 12 13 14 15 15 16 16 17 18 19 19 20 21 22 22 20 18 17 17 16 12 15 20 16 12 14 14 12 11 9 10 11 11
28 27 26 26 27 27 27 27 27 26 26 27 28 30 32 34 36 38 39 41 42 43 42 40 37 36 36 35 34 33 32 30 30 28 25 23 21 20 19 19 18 17 18 18 18 18 17 16 15 14 14 13 13 13 15 15 16 17 17 17 17 18 19 20 20 21 22 21 20 19 17 17 15 17 20 17 14 14 15 16 13 11 12 12 13
29 28 27 27 27 28 28 29 28 28 28 28 30 31 32 34 35 36 37 39 41 43 44 43 40 38 37 36 36 35 33 31 30 29 27 24 22 20 19 19 19 19 20 21 21 21 19 18 16 15 15 14 14 14 15 16 17 17 18 18 18 17 18 19 20 21 22 21 21 20 19 18 18 18 20 20 19 17 18 19 15 14 14 13 13
31 30 28 27 28 29 30 30 30 29 29 30 31 31 32 33 34 35 36 37 38 41 43 44 43 42 40 37 36 36 34 33 31 30 28 25 23 22 21 21 21 21 22 23 23 23 22 20 17 16 16 16 16 17 17 17 18 18 19 20 19 19 18 18 19 21 22 22 21 20 20 20 20 19 19 22 24 21 21 21 19 17 14 14 14
33 31 28 28 29 30 31 31 31 31 32 32 32 32 32 33 33 35 36 36 36 38 41 43 44 44 42 39 37 36 34 33 31 30 29 27 25 25 24 24 24 24 24 23 23 25 24 22 18 17 18 18 18 19 19 19 19 19 19 20 21 21 21 20 20 20 22 23 23 21 21 21 22 21 20 23 26 24 22 21 20 18 16 14 14
34 31 29 29 30 31 33 32 32 32 33 34 33 33 33 33 33 35 36 35 36 37 39 41 43 45 43 41 38 36 35 34 32 30 30 28 28 28 28 28 27 27 27 24 23 25 25 22 19 19 21 21 21 21 21 22 22 21 20 21 22 23 23 23 22 21 21 22 23 24 23 22 23 23 23 24 25 25 23 22 22 20 19 17 15
33 31 31 31 30 31 34 34 34 34 34 35 35 34 34 35 34 35 36 35 35 37 38 40 42 43 43 43 41 39 38 37 33 31 31 30 30 31 32 32 30 30 29 27 26 25 25 24 22 21 23 25 25 23 23 24 25 25 24 23 22 23 23 23 24 23 23 22 22 24 25 25 24 25 26 26 26 26 26 26 24 23 22 21 18
35 34 35 33 32 33 35 36 37 36 36 36 37 36 35 36 36 35 36 36 35 35 36 38 40 41 43 44 44 42 40 38 35 34 34 33 33 33 34 33 32 31 31 29 28 27 26 26 24 24 25 26 26 25 25 25 26 27 27 27 25 23 23 23 24 24 24 23 23 23 25 26 26 27 27 28 28 28 29 29 28 27 25 23 20
39 38 38 36 36 36 37 38 39 39 38 38 38 38 37 37 37 37 36 35 35 35 35 36 38 39 41 43 44 43 41 39 37 36 35 35 35 35 35 34 33 32 31 30 29 28 27 27 27 27 28 27 27 27 27 27 28 27 27 29 28 26 25 24 25 25 25 25 25 24 24 25 27 28 29 29 30 30 30 30 30 30 27 24 22
43 43 43 42 43 42 42 42 42 41 40 40 39 39 39 39 38 38 37 36 36 36 35 35 35 36 39 41 42 42 42 40 38 37 36 36 37 36 35 34 33 32 31 30 31 30 29 29 30 30 30 29 28 28 28 28 29 30 29 30 29 28 28 26 25 25 25 27 27 27 26 26 26 28 29 30 31 32 32 31 32 33 30 27 25
47 47 48 48 49 48 47 46 45 44 43 42 41 41 41 40 39 39 39 37 37 38 36 34 33 33 36 38 39 40 39 38 37 35 34 35 35 35 34 32 32 31 30 31 31 32 32 32 32 32 31 30 29 29 29 29 29 30 31 30 29 29 29 26 25 25 25 26 26 27 27 27 27 27 28 30 32 34 34 33 34 34 33 30 28
51 51 52 53 54 53 53 51 48 47 45 44 44 43 43 42 41 41 42 40 38 39 39 37 34 33 34 35 36 36 36 36 35 34 33 34 34 34 33 32 33 33 32 32 32 33 33 33 33 33 32 31 32 32 31 30 29 29 30 29 28 28 26 25 26 26 26 27 25 25 27 28 29 29 28 28 31 35 36 36 36 37 36 33 31
49 50 52 53 53 52 51 51 50 48 46 46 46 46 45 45 44 44 45 44 41 40 40 39 37 36 36 35 35 35 35 35 34 34 34 35 34 34 33 33 34 34 34 34 35 35 34 34 34 33 33 33 33 33 33 31 29 29 28 28 27 27 26 27 29 29 28 29 26 24 26 28 29 29 30 30 30 33 36 38 38 38 39 36 34
43 44 45 47 49 47 44 45 46 47 47 47 48 48 48 47 47 47 47 46 44 43 41 40 40 40 39 37 36 36 36 36 36 36 37 36 36 35 35 36 36 36 36 36 35 35 35 34 34 34 34 34 33 33 32 29 27 28 28 28 29 30 29 29 31 33 32 30 28 26 26 28 29 29 30 31 32 33 35 38 39 40 40 39 38
44 44 42 42 43 43 41 41 41 44 46 47 47 49 49 47 47 46 46 46 46 45 42 40 41 43 42 41 39 39 38 38 38 39 39 38 37 37 37 37 37 37 37 36 36 35 34 34 34 33 33 32 32 32 29 26 28 29 27 28 31 30 29 30 32 34 33 32 31 30 29 29 30 31 32 33 35 34 35 37 39 40 41 42 41
45 44 42 38 37 37 38 38 38 40 43 44 46 48 49 48 47 46 44 44 46 46 44 41 41 43 43 43 42 41 40 41 41 42 41 40 39 38 38 38 38 37 37 37 36 35 34 33 33 32 31 31 31 30 28 27 28 27 25 28 30 29 28 31 32 32 32 32 32 33 32 32 31 31 33 34 36 37 37 37 38 40 42 43 43
45 44 41 38 34 31 33 35 36 38 41 42 44 45 47 47 47 46 44 45 47 46 46 45 43 42 43 43 43 43 42 43 44 44 43 41 40 39 38 38 38 37 37 37 36 35 33 32 30 30 30 29 30 29 28 28 28 27 28 28 27 26 25 27 28 27 25 25 27 29 30 31 31 31 33 35 36 37 39 40 40 41 43 44 44
45 44 42 39 36 32 31 32 34 37 40 43 43 43 45 47 48 47 47 49 51 50 49 50 47 45 45 45 45 45 44 44 44 44 43 42 41 40 39 38 38 37 36 36 35 33 31 30 29 28 28 28 28 28 27 28 28 29 31 28 22 18 17 18 19 20 20 20 21 23 24 26 29 34 37 38 37 37 39 42 43 43 44 46 46
44 44 42 39 39 38 35 33 33 35 38 41 44 45 46 48 50 51 52 53 54 54 53 51 49 47 47 48 47 47 45 43 43 43 42 42 41 40 39 38 38 37 36 35 34 32 30 31 29 27 26 27 28 30 30 29 30 30 31 30 27 22 19 19 19 20 22 25 25 23 22 22 24 30 37 39 40 41 42 43 44 45 46 48 47
42 41 41 40 40 40 37 35 34 35 36 37 41 45 47 49 51 52 54 55 55 56 54 51 49 48 48 48 48 47 44 42 43 43 43 43 41 40 38 37 37 36 35 35 34 33 32 31 29 28 30 30 31 34 35 33 32 32 32 33 34 34 33 31 29 26 23 25 27 25 22 20 19 24 31 37 39 42 44 46 46 46 46 47 47
42 41 42 41 40 40 38 37 36 37 37 37 39 42 46 50 51 52 54 56 57 55 53 51 51 51 49 49 48 46 44 42 43 44 44 42 40 38 36 36 36 36 36 36 36 34 32 30 30 32 34 34 34 35 35 33 32 31 32 33 34 35 35 35 35 32 26 25 27 26 24 22 21 21 25 31 34 36 39 40 41 44 46 48 49
41 41 42 42 41 40 40 39 39 40 40 40 40 42 45 48 51 53 54 56 56 55 53 52 53 54 52 50 47 45 43 43 44 44 43 41 39 37 36 37 37 37 38 37 37 35 32 30 30 32 32 32 32 32 32 31 30 29 29 29 30 30 31 31 32 32 29 27 27 26 24 23 25 24 23 26 28 29 30 30 30 33 40 48 53
33 34 37 40 41 41 41 41 41 41 41 41 42 43 46 47 50 52 54 55 55 54 54 54 55 55 54 51 47 45 44 45 45 45 43 41 39 36 37 38 38 38 38 38 37 35 32 30 30 30 30 30 30 30 30 29 29 28 28 28 28 28 28 28 28 28 28 27 26 26 25 25 29 28 26 26 27 28 30 31 31 28 31 41 53
28 29 29 30 34 37 39 41 41 40 41 42 42 43 46 49 50 51 52 54 54 54 54 56 57 57 56 53 48 46 46 46 46 45 43 41 39 37 37 38 39 39 39 38 37 34 32 30 30 30 30 30 30 29 29 29 29 28 29 29 29 29 28 27 26 24 23 24 26 26 26 26 28 27 26 27 28 29 29 30 31 30 30 32 42
Wind_Direction
171 165 164 161 165 168 169 167 161 159 153 151 148 149 154 161 167 167 168 163 162 167 169 168 169 167 159 154 147 147 144 139 143 144 143 142 140 144 149 145 138 131 127 127 117 65 34 31 30 27 22 8 356 347 345 23 56 86 98 114 123 117 116 115 114 112 107 103 102 103 102 101 102 109 114 114 109 105 101 99 98 106 117 115 109
168 164 165 161 167 169 170 169 163 160 155 154 150 151 154 159 163 164 165 161 158 160 163 165 169 169 161 155 148 143 142 143 142 139 140 142 140 142 147 144 135 134 136 128 90 40 16 20 19 17 9 341 333 337 355 52 69 94 103 124 127 122 122 118 116 113 108 107 108 107 107 105 103 107 116 121 115 110 106 104 103 106 114 114 110
165 163 165 162 168 170 172 171 165 162 158 157 155 157 158 161 160 159 162 161 158 159 161 161 165 166 163 158 151 147 145 144 140 138 139 139 140 142 144 142 141 146 145 125 69 29 360 354 339 329 312 303 320 340 30 65 87 105 116 131 129 126 125 120 122 121 116 114 112 109 112 109 103 103 117 128 120 115 112 108 107 106 110 111 109
167 163 164 164 168 171 173 173 169 165 163 161 160 161 160 162 159 157 159 162 161 161 162 158 160 163 164 157 151 152 148 144 142 140 139 140 141 142 145 149 157 160 164 155 120 72 314 304 287 267 284 289 318 357 49 86 116 119 130 135 128 127 129 132 132 126 120 117 113 112 116 112 104 103 116 129 124 120 116 110 109 107 108 109 109
169 164 166 167 168 172 175 175 173 169 167 166 163 163 162 161 158 156 157 161 162 161 163 159 158 160 162 155 150 153 150 146 145 142 141 144 144 145 150 159 171 185 212 222 208 229 258 257 258 271 284 290 328 4 71 116 133 129 133 134 128 133 138 136 131 125 122 120 117 116 121 115 107 107 116 127 126 122 118 114 113 110 111 112 110
171 167 168 168 169 172 176 176 176 175 171 170 167 166 164 163 159 157 157 158 161 163 164 161 160 161 161 157 154 155 156 155 151 150 151 152 152 160 169 177 190 205 224 241 247 251 260 271 276 288 293 299 334 13 104 129 140 134 133 134 136 145 143 132 126 125 124 124 123 122 125 119 113 114 120 127 126 123 120 116 114 113 113 112 108
175 171 170 171 171 171 175 176 178 178 174 173 170 169 168 166 163 161 161 161 162 165 167 166 164 164 165 164 164 163 164 165 162 164 165 168 172 179 188 199 210 222 238 250 256 258 267 274 268 288 300 308 331 38 119 135 142 138 136 138 147 155 145 131 125 124 126 131 130 127 129 126 122 121 123 127 126 124 121 117 116 115 110 107 106
179 175 173 173 172 170 173 175 178 179 177 175 173 172 170 168 167 165 166 167 167 168 170 170 170 170 170 171 170 170 171 173 173 173 173 181 188 193 201 213 230 244 253 257 260 256 251 259 264 283 300 318 332 94 130 138 143 140 140 143 154 159 145 133 128 128 133 138 137 135 135 132 130 127 127 128 127 126 124 122 119 111 105 102 88
182 180 176 175 173 171 173 175 177 178 178 177 176 175 173 170 168 168 168 169 171 171 173 174 175 178 179 178 178 178 179 182 185 184 184 192 204 212 218 222 231 243 255 264 263 254 253 268 293 306 305 318 331 131 140 146 147 143 143 146 158 160 146 137 133 135 141 146 147 146 142 140 140 135 131 132 132 133 131 126 119 108 104 80 33
184 184 180 177 175 173 174 176 176 179 180 179 179 177 176 173 169 169 168 168 169 170 173 175 177 180 182 182 183 185 187 191 196 200 202 209 219 222 224 223 228 238 249 261 267 272 264 245 272 321 309 290 307 151 148 155 153 147 147 154 165 161 149 142 139 141 147 149 153 157 152 148 150 143 136 138 141 144 140 131 126 116 86 22 356
186 187 184 180 178 177 176 177 178 180 182 182 181 179 177 175 172 170 168 167 165 165 166 169 171 172 174 175 177 181 183 186 190 196 200 207 214 220 220 220 226 234 243 244 261 286 279 194 213 237 251 212 226 182 157 161 157 150 155 164 170 163 152 147 145 145 148 144 148 158 157 154 156 150 140 144 150 154 154 152 145 124 352 344 331
188 190 187 183 182 182 180 180 180 182 184 184 184 182 180 178 176 174 171 169 165 162 161 161 163 163 164 164 165 166 167 168 168 171 175 176 181 213 224 225 229 231 240 240 249 272 273 267 265 228 228 189 197 195 162 162 158 155 165 174 174 166 156 152 149 148 150 142 141 151 156 156 157 152 147 154 162 162 166 175 174 297 320 327 327
190 191 190 187 186 186 185 184 184 185 186 186 186 186 184 181 179 178 176 174 170 167 163 162 161 160 159 158 157 156 156 156 155 156 157 153 147 191 248 245 240 236 240 243 247 263 271 276 291 265 252 187 189 189 166 161 159 164 175 182 180 170 160 157 153 153 156 149 148 152 155 158 157 156 158 163 171 176 185 203 251 297 315 327 332
193 193 192 191 190 190 190 190 189 189 189 189 189 188 188 186 184 182 181 180 178 176 173 171 168 167 164 162 161 160 161 161 162 162 161 158 145 174 258 263 253 245 238 244 248 256 266 272 280 271 272 205 199 190 171 162 164 173 181 188 185 176 166 163 158 159 164 158 159 158 158 161 158 164 173 175 182 192 203 229 287 300 311 322 330
199 196 194 194 193 193 194 195 196 195 194 193 192 191 191 190 189 187 186 186 185 185 184 182 181 180 178 176 176 176 177 178 180 182 182 177 168 187 248 274 266 248 235 245 250 252 263 266 253 255 269 227 207 191 173 164 169 178 184 192 191 182 172 169 165 165 172 167 169 165 164 165 163 171 180 186 202 213 241 284 306 304 309 316 326
201 201 199 197 197 196 197 198 200 201 199 198 197 196 194 193 193 192 191 192 191 192 192 192 191 191 190 189 189 191 192 193 195 198 201 197 191 202 242 286 290 250 233 242 246 255 265 250 235 248 249 215 201 185 173 168 175 181 188 196 195 187 177 175 171 170 176 174 180 176 172 172 172 184 185 193 217 232 264 292 309 309 311 318 338
196 202 203 202 202 201 201 200 201 203 204 205 204 202 200 197 197 198 197 197 197 198 198 198 199 199 200 198 197 199 200 202 205 207 209 210 203 204 228 273 304 256 230 231 231 248 246 225 244 232 208 199 197 180 172 176 182 183 193 200 199 190 181 180 176 174 175 176 188 190 191 186 177 194 203 208 225 237 260 283 300 304 306 320 343
195 200 205 207 206 205 205 204 204 204 206 208 208 207 205 203 201 202 202 202 202 202 203 203 204 204 204 204 204 204 207 207 209 214 214 215 213 211 217 237 279 258 230 218 215 230 186 195 218 197 196 195 197 180 174 182 188 189 200 206 202 191 184 184 181 178 172 175 192 197 205 202 184 201 224 228 226 231 253 280 295 285 252 248 269
198 200 203 208 210 210 210 208 208 207 208 209 210 209 207 207 206 205 205 204 205 205 205 205 206 206 206 206 207 207 210 211 210 215 218 217 216 215 218 223 245 245 227 213 209 203 170 175 173 178 192 197 197 184 179 186 194 196 204 212 205 192 188 188 185 185 178 179 193 200 207 213 204 203 222 236 223 229 256 277 292 251 243 247 236
202 203 203 207 211 214 215 214 213 211 211 212 212 211 211 211 210 209 208 207 207 208 208 207 207 208 208 208 209 210 210 213 212 214 219 220 219 218 221 222 234 239 225 216 213 199 173 168 164 172 190 201 199 188 187 192 199 200 208 216 209 197 193 192 191 193 189 190 196 203 211 219 223 205 211 239 237 245 262 236 261 284 271 231 195
207 209 207 209 212 215 218 218 218 216 215 214 215 214 214 214 213 213 212 212 211 211 212 211 210 210 211 210 211 212 212 214 214 215 219 221 222 222 226 226 232 242 231 225 224 204 184 175 170 174 189 202 202 195 198 200 202 205 212 219 214 205 199 198 198 200 200 200 202 208 218 221 233 222 209 231 241 248 250 228 263 282 269 216 175
211 212 212 212 213 216 217 219 221 220 219 218 218 217 217 216 216 216 215 215 215 215 216 214 214 214 214 213 214 215 214 214 214 216 219 221 222 221 226 231 234 240 239 233 233 218 196 187 180 177 186 200 205 206 208 207 207 210 215 222 221 213 206 208 208 209 207 208 212 217 227 224 233 235 218 227 241 235 214 229 254 259 251 208 177
215 218 220 218 216 217 218 219 222 222 222 221 221 221 220 219 218 219 218 217 217 218 218 217 217 217 217 216 217 218 217 216 216 215 218 222 222 221 221 225 231 236 241 236 235 230 210 201 194 185 186 198 207 211 214 213 214 217 221 226 227 222 215 214 218 219 217 217 222 231 240 236 232 240 231 226 235 232 214 225 243 234 220 194 181
226 228 230 229 224 222 221 221 222 224 225 224 224 223 223 222 221 221 220 219 219 220 220 220 220 220 220 219 219 220 220 220 220 217 217 223 224 223 222 222 226 228 236 239 235 234 222 212 205 198 195 198 207 213 217 218 221 224 228 232 233 232 226 222 224 226 228 229 232 243 250 246 233 238 235 222 228 245 238 229 242 239 201 186 182
235 234 234 235 234 231 227 225 225 225 226 227 227 227 226 225 224 223 223 222 221 222 221 221 222 222 222 222 222 221 222 224 225 223 220 222 224 227 227 225 227 228 230 238 239 237 232 224 216 211 207 203 206 213 220 223 226 229 232 236 238 239 237 233 231 231 234 236 240 250 254 251 236 237 236 224 227 245 243 230 235 234 196 189 191
236 237 238 238 238 235 232 230 229 229 229 230 230 230 229 228 228 226 226 226 224 224 224 223 222 223 223 224 225 223 223 225 227 229 226 224 225 229 233 230 232 234 231 233 239 241 239 236 230 224 218 212 209 214 222 227 232 234 234 237 240 243 244 242 239 238 239 240 245 252 257 253 234 234 234 222 221 236 241 236 235 231 201 198 205
241 242 242 241 239 236 233 232 233 233 234 234 234 233 232 231 231 230 229 228 228 227 226 225 224 224 225 225 225 225 224 225 228 230 230 227 226 229 235 234 235 239 238 234 235 240 243 243 241 236 230 223 218 218 224 229 233 238 238 238 240 243 245 246 246 244 243 244 248 253 258 254 232 234 232 218 221 240 244 243 246 245 214 203 212
246 247 245 243 240 236 232 232 233 234 235 236 236 237 235 233 232 232 232 231 231 231 229 227 226 227 227 226 226 226 226 226 228 230 231 231 229 231 235 235 235 239 243 242 239 239 242 245 247 245 241 235 229 226 228 231 235 238 241 241 241 242 243 246 248 248 247 246 248 254 259 255 235 236 234 220 222 238 246 248 250 247 223 209 213
247 248 246 245 242 236 234 234 234 236 236 236 237 238 239 238 235 234 233 231 232 233 233 230 228 228 229 229 227 227 227 227 230 231 232 234 232 232 237 236 233 236 243 247 245 243 241 241 247 251 250 247 243 237 234 234 237 240 243 244 245 244 244 244 246 248 251 250 249 251 256 253 238 236 240 235 238 243 251 254 250 251 245 225 216
249 249 247 247 244 238 237 238 238 238 239 238 238 238 239 241 240 238 236 233 231 233 234 234 232 230 230 230 229 229 229 228 231 233 233 235 232 231 239 239 234 233 240 244 245 246 245 242 243 252 256 256 255 249 242 239 240 244 246 247 248 249 248 247 247 247 249 251 251 249 251 252 241 238 244 247 250 250 254 255 254 262 254 233 225
248 247 249 251 246 241 240 241 242 241 240 241 240 240 240 242 243 241 239 236 234 234 235 235 234 233 233 232 231 231 230 229 231 234 235 235 234 235 240 244 240 236 238 241 245 250 249 247 245 250 256 258 260 259 253 246 243 245 250 252 251 251 251 251 250 249 249 249 250 249 248 251 247 242 244 249 250 246 249 249 255 265 245 226 233
249 250 255 254 249 246 243 242 244 244 243 243 242 243 243 243 243 242 241 238 236 235 237 238 235 234 234 234 234 234 233 231 231 234 237 236 235 239 240 243 245 242 240 241 247 253 250 248 245 247 254 255 255 257 259 257 252 247 249 254 255 255 255 255 255 253 253 252 251 249 246 247 249 247 244 250 250 244 242 242 250 258 242 237 239
253 256 257 254 253 251 247 244 245 246 246 246 245 245 246 244 243 242 242 241 237 235 236 239 238 236 233 232 234 233 233 234 234 235 237 236 234 238 240 241 243 244 243 241 245 250 249 245 242 242 247 252 253 252 254 258 261 259 254 251 253 255 256 257 258 256 256 255 254 253 249 244 244 246 246 249 252 247 242 239 245 250 249 257 250
256 256 254 253 255 254 251 248 246 246 248 248 248 247 247 246 244 242 242 241 239 237 236 237 238 238 235 232 233 233 233 235 236 236 236 237 236 238 241 242 242 242 242 242 242 244 245 244 244 243 243 247 251 251 250 253 259 264 264 259 254 255 257 259 260 260 258 257 256 256 253 248 243 243 244 247 251 251 246 242 246 249 252 260 255
255 254 254 254 256 256 255 253 248 247 248 249 249 248 248 247 245 244 242 240 239 238 237 238 238 237 236 234 233 234 236 237 236 236 238 239 239 240 241 242 241 239 239 241 242 242 241 242 246 247 246 245 248 251 251 251 254 258 262 266 264 260 260 260 260 261 262 261 259 256 255 253 248 243 242 245 249 251 250 247 245 243 249 255 252
256 256 256 256 257 259 258 256 252 249 248 249 251 251 250 249 247 245 243 240 237 236 235 237 238 237 235 234 234 235 237 239 239 239 240 240 240 240 242 244 242 237 236 239 242 243 243 243 245 246 248 248 247 249 251 252 255 256 256 261 265 267 269 266 262 261 262 262 261 260 257 255 253 248 243 243 246 250 251 249 241 238 245 250 245
258 258 257 258 261 262 260 258 256 253 250 249 250 251 251 249 248 246 244 240 235 233 234 235 236 236 234 233 233 235 237 239 240 240 240 240 240 241 243 245 244 238 237 239 241 243 243 244 245 246 249 250 248 247 250 253 257 259 256 254 257 262 269 269 264 261 260 259 259 260 260 258 256 254 249 244 245 247 249 248 242 238 242 244 242
258 258 258 260 262 263 262 260 259 256 253 250 249 249 251 250 248 246 245 241 234 231 232 232 232 233 232 231 231 232 234 235 237 237 237 238 239 242 243 243 242 241 240 240 241 241 242 243 243 246 248 249 249 248 250 252 256 260 260 259 255 256 263 267 265 263 261 259 258 259 260 261 260 259 256 250 246 245 246 246 243 240 241 242 245
259 259 261 262 263 263 263 262 259 256 253 250 248 246 248 249 248 246 243 240 235 231 231 230 229 230 229 228 228 228 229 230 231 232 233 235 237 240 241 240 239 239 239 239 239 239 240 241 241 244 245 246 247 247 248 250 253 257 260 263 261 260 263 268 269 266 262 260 261 262 261 260 260 260 260 256 251 247 245 245 244 243 242 241 246
262 263 264 264 263 263 263 262 258 254 251 248 246 243 243 245 245 244 241 239 236 232 231 229 227 228 228 227 226 225 226 228 229 231 233 235 236 237 237 237 237 237 237 238 238 238 239 240 241 243 245 245 245 245 246 247 251 254 257 262 265 266 268 270 271 270 265 260 259 262 264 263 261 260 260 259 256 250 247 245 244 245 243 242 244
267 268 269 269 266 263 263 263 258 252 249 247 245 242 241 241 242 242 241 239 237 234 231 229 227 227 229 229 228 228 229 230 231 233 235 236 236 236 235 237 238 238 239 239 239 240 240 241 242 244 245 246 245 245 245 247 252 257 260 266 268 268 270 272 273 275 274 269 265 263 262 264 262 261 261 260 258 254 249 247 244 244 244 244 243
270 272 274 276 272 263 262 265 259 250 247 246 244 241 240 240 241 243 243 241 239 236 233 229 228 228 229 231 232 232 233 234 234 235 237 237 236 235 236 237 238 240 241 242 242 240 240 240 240 242 243 244 244 246 246 244 248 254 259 263 264 263 265 268 270 274 276 276 276 273 269 267 263 261 261 260 260 257 253 249 246 244 243 244 243
274 273 272 276 273 262 259 261 256 247 243 243 242 239 239 239 240 244 244 242 240 238 236 233 231 230 230 231 233 234 235 235 235 236 237 237 236 235 235 236 238 239 240 241 241 239 238 237 236 237 238 238 240 242 242 241 244 250 254 257 261 265 267 269 271 272 274 275 275 275 276 275 272 267 262 259 259 258 256 252 248 245 244 244 242
275 274 272 273 269 260 257 256 252 246 241 240 240 238 239 239 240 242 243 243 242 241 239 237 234 233 233 233 234 235 236 236 235 235 235 235 235 234 234 235 236 236 237 238 238 238 236 233 233 233 232 233 236 237 237 238 241 245 249 251 254 258 259 266 273 274 275 276 273 273 275 275 276 275 269 264 262 261 259 255 251 247 244 244 242
273 273 273 271 267 263 262 259 252 248 244 242 242 240 238 237 237 236 237 238 239 239 238 237 234 233 234 234 235 235 236 237 235 233 234 233 233 232 232 233 233 234 234 235 236 237 236 235 236 234 229 231 237 238 236 237 238 241 246 245 243 244 245 255 268 271 272 275 278 278 276 274 273 272 270 268 268 267 264 258 252 248 245 243 242
274 273 273 271 267 266 267 264 258 253 250 247 245 241 238 235 234 232 231 232 234 236 236 236 234 232 233 234 234 235 237 237 234 232 232 232 231 231 232 232 232 232 233 234 236 236 235 236 240 239 234 234 238 238 239 242 242 241 242 242 244 251 255 258 265 271 274 275 278 279 277 276 271 266 263 262 265 267 266 263 255 248 245 241 240
278 277 275 272 269 268 267 263 259 256 253 250 247 242 238 235 234 233 232 233 234 236 237 237 235 233 233 234 235 235 235 235 233 231 230 231 231 231 233 233 233 233 232 233 235 235 233 234 235 233 233 235 235 237 243 248 247 242 241 244 248 253 257 259 261 267 273 274 275 274 274 277 275 269 261 257 257 258 259 260 254 248 246 242 240
279 278 275 273 271 269 268 264 260 256 252 250 248 244 240 237 235 234 234 235 236 238 239 239 237 236 234 234 235 235 234 233 231 230 230 231 231 232 234 235 235 233 231 231 232 232 232 230 227 227 231 236 237 239 244 247 246 245 245 246 250 253 256 256 257 259 263 267 270 269 269 275 277 275 266 259 257 253 249 250 250 246 247 246 244
282 279 276 275 273 270 268 265 261 258 254 252 250 247 244 241 238 236 236 236 237 238 240 241 240 238 236 234 234 234 232 231 230 229 229 230 231 233 236 237 236 233 230 229 229 230 229 228 228 229 234 237 238 240 242 243 244 246 247 248 251 253 254 254 254 255 255 258 265 266 267 270 268 266 264 262 263 262 255 257 262 258 254 252 249
287 286 281 276 273 271 268 265 261 258 256 254 251 249 246 243 241 239 238 237 236 236 237 239 240 240 238 236 234 232 230 229 229 229 228 229 230 234 237 238 235 232 229 227 227 227 226 226 228 231 234 236 238 238 240 241 243 244 246 248 248 249 249 249 249 250 250 252 258 261 261 262 263 264 263 263 265 266 265 268 272 271 264 256 250
288 285 284 279 273 270 268 265 262 257 254 253 251 249 247 244 243 242 241 239 237 236 236 237 238 238 238 236 233 230 229 228 228 228 227 227 230 234 237 237 234 229 227 226 225 224 223 224 226 230 232 234 236 237 238 240 242 243 243 244 244 245 246 248 250 253 253 253 254 257 260 263 268 271 268 268 270 270 271 272 271 272 272 265 253